Simultaneous Nadir Overpasses (SNOs) Predictions

Prediction of SNOs between GOES-16 and NPP Satellite Orbit:

Table of predicted SNOs for the next 14.0 days since TLE Epoch: 2/5/2022
Index Date Time (GOES-16) GOES-16 Lat,Lon NPP Lat,Lon Distance(km) Time Diff (sec)
1 02/05/2022 06:38:44 -0.06, -75.19 0.57, -77.92 311.62 80
2 02/06/2022 06:17:20 -0.06, -75.19 -0.48, -73.40 204.55 80
3 02/07/2022 18:39:16 0.06, -75.20 -0.74, -78.70 399.58 80
4 02/08/2022 18:23:12 0.06, -75.20 0.26, -74.17 117.05 80
5 02/10/2022 06:45:00 -0.06, -75.20 0.91, -79.44 483.68 80
6 02/11/2022 06:23:36 -0.05, -75.20 -0.09, -74.91 33.12 80
7 02/13/2022 18:26:49 0.04, -75.22 -0.06, -75.69 53.48 80
8 02/14/2022 18:10:44 0.04, -75.23 0.95, -71.16 463.70 80
9 02/16/2022 06:32:33 -0.03, -75.24 0.22, -76.44 135.74 80
10 02/17/2022 06:11:08 -0.03, -75.25 -0.79, -71.90 381.71 80
11 02/18/2022 18:33:04 0.03, -75.27 -0.41, -77.21 220.48 80
